VLG59BT LEBL-LFMN

Flight info

Callsign VLG59BT
Flight time 0h 29m
Altitude 30000
Route DALIN L16 BGR L110 DIBER DCT SOSUR DCT SOFFY DCT MRM DCT ABLAK
Aircraft A320/M-SDE3FGHIRWY/LB1

Departure

Time 2026-05-07 01:22
Airport Josep Tarradellas Barcelona-El Prat Airport (LEBL)

Arrival

Time 2026-05-07 01:51
Airport Nice-Côte d'Azur Airport (LFMN)
Time Latitude Longitude Altitude Speed Heading
2026-05-07 01:02 41.29150 2.07945 19 ft 0 kts 155°
2026-05-07 01:13 41.29158 2.07940 19 ft 4 kts 155°
2026-05-07 01:14 41.29182 2.07925 21 ft 4 kts 155°
2026-05-07 01:14 41.29206 2.07911 19 ft 4 kts 143°
2026-05-07 01:14 41.29218 2.07887 20 ft 4 kts 79°
2026-05-07 01:14 41.29211 2.07861 19 ft 4 kts 65°
2026-05-07 01:15 41.29208 2.07852 19 ft 0 kts 65°
2026-05-07 01:17 41.29208 2.07853 19 ft 1 kts 65°
2026-05-07 01:17 41.29211 2.07862 19 ft 2 kts 65°
2026-05-07 01:17 41.29222 2.07894 22 ft 5 kts 65°
2026-05-07 01:17 41.29243 2.07957 19 ft 11 kts 65°
2026-05-07 01:18 41.29287 2.08085 19 ft 24 kts 65°
2026-05-07 01:18 41.29360 2.08297 19 ft 19 kts 65°
2026-05-07 01:18 41.29320 2.08407 20 ft 14 kts 153°
2026-05-07 01:18 41.29226 2.08459 20 ft 12 kts 182°
2026-05-07 01:19 41.29157 2.08427 20 ft 12 kts 198°
2026-05-07 01:19 41.29058 2.08380 21 ft 24 kts 199°
2026-05-07 01:19 41.28832 2.08279 18 ft 24 kts 199°
2026-05-07 01:19 41.28712 2.08253 17 ft 9 kts 129°
2026-05-07 01:20 41.28723 2.08322 17 ft 10 kts 65°
2026-05-07 01:20 41.28759 2.08425 17 ft 13 kts 64°
2026-05-07 01:20 41.28823 2.08505 18 ft 8 kts 15°
2026-05-07 01:20 41.28829 2.08508 18 ft 0 kts 16°
2026-05-07 01:21 41.28831 2.08508 18 ft 2 kts 16°
2026-05-07 01:21 41.29031 2.08597 19 ft 68 kts 19°
2026-05-07 01:21 41.29695 2.08899 19 ft 130 kts 19°
2026-05-07 01:22 41.30658 2.09335 325 ft 151 kts 20°
2026-05-07 01:22 41.31627 2.09888 987 ft 153 kts 39°
2026-05-07 01:22 41.32181 2.11055 1706 ft 153 kts 77°
2026-05-07 01:22 41.32107 2.12523 2170 ft 173 kts 108°
2026-05-07 01:23 41.31693 2.14138 2579 ft 196 kts 108°
2026-05-07 01:23 41.31236 2.15946 3121 ft 212 kts 108°
2026-05-07 01:23 41.30760 2.17834 3842 ft 218 kts 109°
2026-05-07 01:23 41.30277 2.19761 4716 ft 221 kts 109°
2026-05-07 01:24 41.29798 2.21685 5568 ft 224 kts 110°
2026-05-07 01:24 41.29302 2.23689 6438 ft 227 kts 110°
2026-05-07 01:24 41.28807 2.25699 7237 ft 232 kts 109°
2026-05-07 01:24 41.28306 2.27739 8006 ft 237 kts 109°
2026-05-07 01:25 41.28000 2.29911 8779 ft 243 kts 89°
2026-05-07 01:25 41.28311 2.32135 9468 ft 255 kts 66°
2026-05-07 01:25 41.29248 2.34244 9862 ft 278 kts 54°
2026-05-07 01:25 41.30383 2.36455 10218 ft 302 kts 54°
2026-05-07 01:26 41.31612 2.38861 10507 ft 326 kts 55°
2026-05-07 01:26 41.32914 2.41437 10975 ft 341 kts 55°
2026-05-07 01:26 41.34244 2.44093 11667 ft 348 kts 56°
2026-05-07 01:26 41.35591 2.46796 12428 ft 352 kts 56°
2026-05-07 01:27 41.36952 2.49533 13206 ft 356 kts 56°
2026-05-07 01:27 41.38330 2.52301 13954 ft 360 kts 56°
2026-05-07 01:27 41.39723 2.55097 14626 ft 364 kts 56°
2026-05-07 01:27 41.40991 2.58038 15276 ft 368 kts 62°
2026-05-07 01:28 41.42177 2.61087 15941 ft 372 kts 63°
2026-05-07 01:28 41.43341 2.64183 16591 ft 376 kts 63°
2026-05-07 01:28 41.44502 2.67323 17248 ft 380 kts 63°
2026-05-07 01:28 41.45671 2.70500 17861 ft 385 kts 63°
2026-05-07 01:29 41.46862 2.73720 18472 ft 389 kts 63°
2026-05-07 01:29 41.48074 2.76972 19021 ft 394 kts 63°
2026-05-07 01:29 41.49306 2.80262 19567 ft 399 kts 63°
2026-05-07 01:29 41.50556 2.83596 20111 ft 404 kts 63°
2026-05-07 01:30 41.52242 2.88097 20810 ft 410 kts 63°
2026-05-07 01:30 41.57356 3.01812 22825 ft 426 kts 63°
2026-05-07 01:30 41.62743 3.16356 24512 ft 446 kts 63°
2026-05-07 01:30 41.68318 3.31493 26139 ft 462 kts 63°
2026-05-07 01:31 41.74065 3.47166 27732 ft 475 kts 63°
2026-05-07 01:31 41.79937 3.63301 29269 ft 488 kts 63°
2026-05-07 01:31 41.85932 3.79815 29856 ft 491 kts 63°
2026-05-07 01:31 41.89490 3.89687 30042 ft 471 kts 64°
2026-05-07 01:32 41.90923 3.93672 30006 ft 477 kts 64°
2026-05-07 01:32 41.93808 4.01705 30008 ft 475 kts 63°
2026-05-07 01:33 42.01195 4.22382 29992 ft 476 kts 64°
2026-05-07 01:33 42.16125 4.51179 29886 ft 471 kts 38°
2026-05-07 01:34 42.35481 4.74683 30099 ft 465 kts 38°
2026-05-07 01:34 42.45175 4.86482 29925 ft 471 kts 38°
2026-05-07 01:34 42.54979 4.98018 29937 ft 460 kts 28°
2026-05-07 01:34 42.66741 5.03923 30100 ft 448 kts
2026-05-07 01:35 42.78766 5.08743 29903 ft 453 kts 10°
2026-05-07 01:35 42.90626 5.13482 30016 ft 448 kts 10°
2026-05-07 01:35 43.02589 5.18277 30052 ft 449 kts 10°
2026-05-07 01:35 43.14583 5.23155 28182 ft 440 kts 11°
2026-05-07 01:36 43.26051 5.27872 26194 ft 420 kts 11°
2026-05-07 01:36 43.30140 5.29542 25578 ft 412 kts 11°
2026-05-07 01:36 43.32872 5.30658 25161 ft 408 kts 11°
2026-05-07 01:36 43.35587 5.31772 24726 ft 405 kts 12°
2026-05-07 01:37 43.39870 5.34545 23990 ft 410 kts 29°
2026-05-07 01:37 43.44601 5.38835 23016 ft 405 kts 29°
2026-05-07 01:37 43.49019 5.43534 22086 ft 403 kts 45°
2026-05-07 01:37 43.51899 5.50049 21390 ft 398 kts 68°
2026-05-07 01:38 43.53868 5.57171 20705 ft 395 kts 68°
2026-05-07 01:38 43.55845 5.64200 20044 ft 390 kts 67°
2026-05-07 01:38 43.57060 5.71438 19392 ft 386 kts 86°
2026-05-07 01:38 43.57526 5.78797 18744 ft 384 kts 85°
2026-05-07 01:39 43.58012 5.86103 18069 ft 380 kts 85°
2026-05-07 01:39 43.58494 5.93224 17444 ft 376 kts 85°
2026-05-07 01:39 43.58955 6.00373 16812 ft 373 kts 85°
2026-05-07 01:39 43.59348 6.09075 16002 ft 367 kts 96°
2026-05-07 01:40 43.58055 6.15698 15185 ft 362 kts 114°
2026-05-07 01:40 43.56263 6.22120 14315 ft 356 kts 113°
2026-05-07 01:40 43.54526 6.28481 13410 ft 353 kts 113°
2026-05-07 01:40 43.52795 6.34761 12550 ft 348 kts 113°
2026-05-07 01:41 43.51096 6.40903 11992 ft 334 kts 114°
2026-05-07 01:41 43.48633 6.46027 11490 ft 315 kts 138°
2026-05-07 01:41 43.45585 6.50365 10746 ft 314 kts 137°
2026-05-07 01:41 43.42564 6.54701 10084 ft 310 kts 136°
2026-05-07 01:42 43.39698 6.59094 9278 ft 309 kts 124°
2026-05-07 01:42 43.38461 6.64617 8246 ft 300 kts 91°
2026-05-07 01:42 43.38479 6.70364 7467 ft 300 kts 90°
2026-05-07 01:42 43.38448 6.79623 6208 ft 293 kts 89°
2026-05-07 01:43 43.38710 6.82376 5838 ft 290 kts 72°
2026-05-07 01:43 43.39507 6.84908 5579 ft 285 kts 54°
2026-05-07 01:43 43.40702 6.86976 5491 ft 270 kts 40°
2026-05-07 01:43 43.42014 6.88759 5380 ft 260 kts 41°
2026-05-07 01:44 43.43273 6.90466 5326 ft 248 kts 40°
2026-05-07 01:44 43.44472 6.92096 5240 ft 237 kts 41°
2026-05-07 01:44 43.45619 6.93656 5125 ft 228 kts 40°
2026-05-07 01:44 43.46740 6.95181 4954 ft 223 kts 41°
2026-05-07 01:45 43.47839 6.96677 4756 ft 221 kts 41°
2026-05-07 01:45 43.48907 6.98132 4476 ft 216 kts 40°
2026-05-07 01:45 43.49956 6.99563 4197 ft 209 kts 39°
2026-05-07 01:45 43.50969 7.00946 3941 ft 200 kts 39°
2026-05-07 01:46 43.51930 7.02258 3662 ft 190 kts 39°
2026-05-07 01:46 43.52848 7.03513 3414 ft 181 kts 40°
2026-05-07 01:46 43.53695 7.04671 3198 ft 163 kts 40°
2026-05-07 01:46 43.54469 7.05729 2978 ft 153 kts 38°
2026-05-07 01:47 43.55213 7.06743 2774 ft 149 kts 37°
2026-05-07 01:47 43.55950 7.07749 2575 ft 148 kts 38°
2026-05-07 01:47 43.56679 7.08746 2382 ft 147 kts 38°
2026-05-07 01:47 43.57402 7.09736 2193 ft 146 kts 37°
2026-05-07 01:48 43.58122 7.10721 1997 ft 145 kts 38°
2026-05-07 01:48 43.58830 7.11690 1794 ft 147 kts 38°
2026-05-07 01:48 43.59553 7.12680 1602 ft 146 kts 38°
2026-05-07 01:48 43.60273 7.13667 1405 ft 146 kts 39°
2026-05-07 01:49 43.60994 7.14655 1229 ft 144 kts 43°
2026-05-07 01:49 43.61690 7.15611 1035 ft 140 kts 41°
2026-05-07 01:49 43.62364 7.16536 843 ft 137 kts 41°
2026-05-07 01:49 43.63040 7.17463 659 ft 137 kts 42°
2026-05-07 01:50 43.63712 7.18385 485 ft 136 kts 41°
2026-05-07 01:50 43.64384 7.19300 277 ft 134 kts 44°
2026-05-07 01:50 43.64831 7.19918 168 ft 135 kts 42°
2026-05-07 01:50 43.65485 7.20818 23 ft 128 kts 43°
2026-05-07 01:51 43.66005 7.21527 20 ft 76 kts 45°
2026-05-07 01:51 43.66183 7.21759 21 ft 17 kts 12°
2026-05-07 01:51 43.66241 7.21712 21 ft 8 kts 319°
2026-05-07 01:51 43.66249 7.21703 21 ft 1 kts 319°
2026-05-07 01:52 43.66260 7.21689 21 ft 4 kts 319°
2026-05-07 01:52 43.66286 7.21654 21 ft 7 kts 315°
2026-05-07 01:52 43.66327 7.21597 21 ft 10 kts 315°
2026-05-07 01:52 43.66377 7.21519 21 ft 11 kts 289°
2026-05-07 01:53 43.66355 7.21444 22 ft 9 kts 248°
2026-05-07 01:53 43.66344 7.21353 21 ft 11 kts 265°
2026-05-07 01:53 43.66331 7.21244 23 ft 12 kts 261°
2026-05-07 01:53 43.66351 7.21190 21 ft 1 kts 351°
2026-05-07 01:54 43.66365 7.21189 21 ft 3 kts 356°
2026-05-07 01:54 43.66390 7.21182 24 ft 5 kts 351°
2026-05-07 01:54 43.66395 7.21181 23 ft 0 kts 351°